Flag for India Weather past 2 weeks in Kãnpur, Uttar Pradesh, India

Now
86 °F

Haze.


Feels Like: 87 °F
Forecast: 66 / 87 °F
Wind: 6 mph from East

Location: Lucknow / Amausi

Current Time: Oct 25, 2014 at 12:35:12 PM

Latest Report: Oct 25, 2014 at 11:30 AM


Visibility: 2 mi

Pressure: 29.92 "Hg

Humidity: 49%

Dew point: 64 °F

Location of KãnpurLocation

Historic Weather in Kãnpur — Graph

°F

Kãnpur temperature yesterday

Maximum temperature yesterday: 86 °F (at 1:00 PM)
Minimum temperature yesterday: 68 °F (at 4:00 AM)
Average temperature yesterday: 78 °F

Past Weeks' High & Low Weather Summary

 TemperatureHumidityPressure
High99 °F (Oct 10, 12:30 PM)100% (Oct 14, 6:00 AM)30.07 "Hg (Oct 14, 6:00 AM)
Low64 °F (Oct 18, 6:00 AM)32% (Oct 12, 1:30 PM)29.56 "Hg (Oct 14, 1:00 PM)
Average78 °F72%29.87 "Hg
* Reported Oct 10 10:30 AM — Oct 25 11:00 AM, Kãnpur, Weather by CustomWeather, © 2014

Note: Actual official high and low records may vary slightly from our data, if they occured in-between our weather recording intervals... More about our weather records

Advertising

Kãnpur weather history for previous 24 hours

 ConditionsComfort  
Time TempWeatherWind HumidityBarometerVisibility
11:00 AM
Oct 25
86 °FHaze.5 mph52%29.95 "Hg2 mi
10:30 AM84 °FHaze.3 mph55%29.95 "Hg2 mi
9:30 AM79 °FHaze.3 mph70%29.95 "Hg1 mi
9:00 AM77 °FHaze.No wind69%29.95 "Hg1 mi
8:30 AM75 °FHaze.No wind74%29.95 "Hg1 mi
8:00 AM70 °FFog.No wind88%29.95 "Hg1 mi
7:30 AM68 °FFog.No wind88%29.92 "Hg1 mi
7:00 AM66 °FFog.No wind94%29.92 "Hg1 mi
6:30 AM66 °FFog.No wind94%29.89 "Hg1 mi
6:00 AM66 °FFog.No wind94%29.89 "Hg1 mi
5:30 AM66 °FFog.No wind94%29.89 "Hg2 mi
5:00 AM68 °FFog.No wind88%29.86 "Hg2 mi
4:00 AM68 °FFog.No wind88%29.86 "Hg2 mi
3:00 AM68 °FFog.No wind88%29.86 "Hg2 mi
2:00 AM68 °FFog.No wind88%29.89 "Hg2 mi
1:00 AM70 °FFog.No wind88%29.89 "Hg2 mi
12:00 AM70 °FFog.No wind88%29.89 "Hg2 mi
11:00 PM
Oct 24
72 °FFog.No wind83%29.92 "Hg2 mi
10:00 PM72 °FFog.No wind83%29.92 "Hg2 mi
9:00 PM72 °FFog.No wind83%29.89 "Hg2 mi
8:30 PM75 °FHaze.No wind74%29.89 "Hg2 mi
8:00 PM79 °FHaze.No wind70%29.89 "Hg2 mi
7:30 PM79 °FHaze.No wind70%29.89 "Hg2 mi
7:00 PM81 °FHaze.No wind66%29.86 "Hg2 mi
6:30 PM82 °FHaze.No wind66%29.86 "Hg2 mi
5:30 PM82 °FHaze.No wind62%29.86 "Hg2 mi
5:00 PM84 °FHaze.No wind58%29.83 "Hg2 mi
4:30 PM86 °FHaze.No wind55%29.83 "Hg2 mi
4:00 PM86 °FHaze.No wind52%29.83 "Hg2 mi
3:30 PM86 °FHaze.2 mph55%29.83 "Hg2 mi
3:00 PM86 °FHaze.2 mph55%29.86 "Hg2 mi
2:30 PM86 °FHaze.2 mph55%29.86 "Hg2 mi
2:00 PM86 °FHaze.2 mph52%29.86 "Hg2 mi
1:30 PM86 °FHaze.2 mph55%29.89 "Hg3 mi
1:00 PM86 °FHaze.2 mph55%29.89 "Hg3 mi
12:30 PM84 °FHaze.6 mph55%29.92 "Hg3 mi
12:00 PM84 °FHaze.5 mph55%29.92 "Hg3 mi
Weather by CustomWeather, © 2014

See weather overviewHow to use our weather pages